Location: Unspecified
(43.4680°N, 87.1740°E)
Time: 10:21:51
(UTC+00:00)

Meteor 1-13 Rocket - Pass Details

Date: 17 April 2021
Orbit: 829 x 913 km, 81.3° (Epoch: 14 May)

Event Time Altitude Azimuth Distance (km) Brightness Sun altitude
Exits shadow 21:43:35 25° 211° (SSW) 1,718 5.3 -17.3°
Maximum altitude 21:46:58 60° 283° (WNW) 1,007 4.4 -16.8°
Drops below altitude 10° 21:52:38 10° 3° (N) 2,520 7.2 -16.0°
Sets 21:55:06 0° 7° (N) 3,449 8.0 -15.6°
